Location: Passau
(48.5721°N, 13.4363°E)
Time: 03:15:50
(UTC+02:00)

ISS - Visible Passes

Search period start: 25 May 2017 00:00
Search period end: 04 June 2017 00:00
Orbit: 402 x 409 km, 51.6° (Epoch: 25 May)

Date Brightness Start Highest point End Pass type
(mag) Time Alt. Az. Time Alt. Az. Time Alt. Az.
25 May -2.8 01:06:42 10° WNW 01:09:55 46° N 01:13:07 10° ENE visible
25 May -3.8 02:43:20 10° WNW 02:46:39 80° NNE 02:49:56 10° ESE visible
25 May -2.7 04:20:10 10° W 04:22:53 24° SW 04:25:35 10° SSE visible
25 May -3.9 22:37:54 10° WSW 22:41:10 68° SSE 22:44:27 10° ENE visible
26 May -2.9 00:14:34 10° W 00:17:47 49° N 00:21:01 10° ENE visible
26 May -3.3 01:51:18 10° WNW 01:54:35 61° NNE 01:57:50 10° E visible
26 May -3.4 03:27:54 10° WNW 03:31:00 38° SSW 03:34:04 10° SE visible
26 May -3.5 21:46:02 10° SW 21:49:11 43° SSE 21:52:21 10° ENE visible
26 May -3.2 23:22:24 10° W 23:25:40 57° NNW 23:28:55 10° ENE visible
27 May -3.0 00:59:14 10° WNW 01:02:28 51° N 01:05:41 10° E visible
27 May -3.9 02:35:47 10° WNW 02:39:02 61° SSW 02:42:16 10° SE visible
27 May -1.9 04:13:37 10° WSW 04:15:00 12° SW 04:16:22 10° SSW visible
27 May -3.6 22:30:16 10° WSW 22:33:33 74° NNW 22:36:52 10° ENE visible
28 May -2.8 00:07:06 10° WNW 00:10:19 47° N 00:13:31 10° ENE visible
28 May -3.9 01:43:42 10° WNW 01:47:01 90° SW 01:47:25 66° ESE visible
28 May -3.9 21:38:11 10° WSW 21:41:29 80° SSE 21:44:48 10° ENE visible
28 May -2.8 23:14:56 10° W 23:18:09 48° N 23:21:22 10° ENE visible
29 May -3.5 00:51:37 10° WNW 00:54:55 67° NNE 00:56:00 38° E visible
29 May -1.3 02:28:17 10° W 02:28:36 12° W 02:28:36 12° W visible
29 May -3.0 22:22:44 10° W 22:25:58 53° N 22:29:13 10° ENE visible
29 May -3.1 23:59:32 10° WNW 00:02:47 54° N 00:05:06 17° E visible
30 May -2.3 01:36:05 10° WNW 01:37:43 25° W 01:37:43 25° W visible
30 May -2.8 23:07:23 10° WNW 23:10:35 48° N 23:13:48 10° E visible
31 May -3.9 00:43:57 10° WNW 00:47:00 72° WSW 00:47:00 72° WSW visible
31 May -2.7 22:15:11 10° WNW 22:18:23 47° N 22:21:36 10° ENE visible
31 May -3.7 23:51:50 10° WNW 23:55:08 74° NNE 23:56:24 34° E visible
01 Jun -1.3 01:28:35 10° W 01:29:02 13° W 01:29:02 13° W visible
01 Jun -3.2 22:59:42 10° WNW 23:02:58 58° NNE 23:05:50 13° E visible
02 Jun -2.7 00:36:17 10° WNW 00:38:28 32° WSW 00:38:28 32° WSW visible
02 Jun -2.9 22:07:32 10° WNW 22:10:45 49° N 22:13:59 10° E visible
02 Jun -3.9 23:44:05 10° WNW 23:47:22 68° SSW 23:47:57 53° SSE visible
03 Jun -3.8 22:51:55 10° WNW 22:55:14 83° NNE 22:57:28 19° ESE visible
